GPS BIIF-12

Last updated on Fri Dec 19 2025 00:02:37 GMT+0000 (Coordinated Universal Time)

1 41328U 16007A 25352.37688871 -.00000035 00000+0 00000+0 0 9994 2 41328 55.4093 96.6333 0092443 243.7073 115.3258 2.00560483 72219
UTC large
Height (km)
Speed (km/s)
/
Latitude / Longitude
Inclination (degrees)
Orbital Period (minutes)
Azimuth
Elevation
Range (km)
Doppler Factor

Next 0 passes for location: London (51.5072 / 0.1276)

Sorry there are no passes over London.